Quincy, IL

3:15 PM CST on January 22, 2018 (GMT -0600)
Quincy Regional-Baldwin

Weather History for KUIN - March, 2013

Change the Weather History Date:

Tuesday, March 26, 2013

  Actual Average Record
Temperature  
Mean Temperature 31 °F 46 °F  
Max Temperature 37 °F 56 °F 82 °F (1991)
Min Temperature 25 °F 36 °F 4 °F (1955)
Degree Days  
Heating Degree Days 34 19  
Month to date heating degree days 831 628  
Since 1 July heating degree days 4942 4970  
Cooling Degree Days 0 0  
Month to date cooling degree days 0 0  
Year to date cooling degree days 0 0  
Moisture  
Dew Point 22 °F    
Average Humidity 67    
Maximum Humidity 81    
Minimum Humidity 52    
Precipitation  
Precipitation 0.00 in 0.08 in 1.02 in (1906)
Month to date precipitation 2.15 2.01  
Year to date precipitation 7.62 5.41  
Sea Level Pressure  
Sea Level Pressure 30.30 in    
Wind  
Wind Speed 9 mph (WNW)    
Max Wind Speed 18 mph    
Max Gust Speed 22 mph    
Visibility 10 miles    
Events      
T = Trace of Precipitation, MM = Missing Value Source: NWS Daily Summary

Daily Weather History Graph

Daily Weather History Graph

Search for Another Location

Airport or City:

Trip Planner

Search our weather history database for the weather conditions in past years. The results will help you decide how hot, cold, wet, or windy it might be!

Date:

Astronomy

Mar. 26, 2013 Rise Set
Actual Time 6:58 AM CDT 7:23 PM CDT
Civil Twilight 6:30 AM CDT 7:50 PM CDT
Nautical Twilight 5:59 AM CDT 8:22 PM CDT
Astronomical Twilight 5:26 AM CDT 8:55 PM CDT
Moon 7:00 PM CDT (3/26) 6:14 AM CDT (3/26)
Length of Visible Light 13h 19m
Length of Day
12h 25m
Waxing Gibbous, 99% of the Moon is Illuminated
Mar 26
Waxing Gibbous
Mar 27
Full
Apr 2
Last Quarter
Apr 10
New
Apr 18
First Quarter

Hourly Weather History & Observations

Time (CDT) Temp. Windchill Dew Point Humidity Pressure Visibility Wind Dir Wind Speed Gust Speed Precip Events Conditions
12:54 AM 30.9 °F 22.8 °F 24.1 °F 76% 30.22 in 10.0 mi NW 9.2 mph - N/A   Overcast
1:54 AM 30.9 °F 22.8 °F 23.0 °F 72% 30.23 in 10.0 mi NW 9.2 mph - N/A   Overcast
2:54 AM 30.9 °F 21.7 °F 23.0 °F 72% 30.23 in 10.0 mi NW 11.5 mph - N/A   Overcast
3:54 AM 30.0 °F 20.0 °F 23.0 °F 75% 30.23 in 10.0 mi NW 12.7 mph - N/A   Overcast
4:54 AM 30.0 °F 20.0 °F 21.9 °F 72% 30.24 in 10.0 mi NW 12.7 mph - N/A   Overcast
5:54 AM 30.0 °F 20.0 °F 23.0 °F 75% 30.25 in 10.0 mi NW 12.7 mph - N/A   Overcast
6:54 AM 28.9 °F 19.2 °F 21.9 °F 75% 30.27 in 10.0 mi NW 11.5 mph - N/A   Overcast
7:54 AM 25.0 °F 16.3 °F 19.9 °F 81% 30.30 in 10.0 mi WNW 8.1 mph - N/A   Clear
8:54 AM 28.0 °F 17.5 °F 21.9 °F 78% 30.31 in 10.0 mi NW 12.7 mph - N/A   Clear
9:54 AM 30.0 °F 19.5 °F 23.0 °F 75% 30.32 in 10.0 mi NW 13.8 mph - N/A   Clear
10:54 AM 30.9 °F 20.7 °F 23.0 °F 72% 30.34 in 10.0 mi NW 13.8 mph - N/A   Clear
11:54 AM 33.1 °F 24.4 °F 23.0 °F 66% 30.34 in 10.0 mi West 11.5 mph - N/A   Clear
12:54 PM 35.1 °F 27.9 °F 23.0 °F 61% 30.34 in 10.0 mi WNW 9.2 mph - N/A   Clear
1:54 PM 36.0 °F 28.5 °F 23.0 °F 59% 30.33 in 10.0 mi WNW 10.4 mph - N/A   Clear
2:54 PM 37.0 °F 29.3 °F 23.0 °F 57% 30.33 in 10.0 mi WNW 11.5 mph - N/A   Clear
3:54 PM 37.0 °F 29.8 °F 23.0 °F 57% 30.32 in 10.0 mi NW 10.4 mph - N/A   Clear
4:54 PM 37.0 °F 29.8 °F 21.9 °F 54% 30.32 in 10.0 mi WNW 10.4 mph - N/A   Clear
5:54 PM 37.0 °F 31.0 °F 21.9 °F 54% 30.33 in 10.0 mi West 8.1 mph - N/A   Partly Cloudy
6:54 PM 36.0 °F 32.1 °F 19.9 °F 52% 30.33 in 10.0 mi West 4.6 mph - N/A   Mostly Cloudy
7:54 PM 34.0 °F - 19.9 °F 56% 30.33 in 10.0 mi Calm Calm - N/A   Partly Cloudy
8:54 PM 30.0 °F 25.2 °F 21.0 °F 69% 30.34 in 10.0 mi SW 4.6 mph - N/A   Clear
9:54 PM 28.9 °F 25.2 °F 19.9 °F 69% 30.35 in 10.0 mi SW 3.5 mph - N/A   Clear
10:54 PM 28.0 °F 22.8 °F 19.9 °F 72% 30.35 in 10.0 mi SSW 4.6 mph - N/A   Mostly Cloudy
11:54 PM 28.0 °F 24.2 °F 19.9 °F 72% 30.36 in 10.0 mi SW 3.5 mph - N/A   Clear